TimeEDT,TemperatureF,Dew PointF,Humidity,Sea Level PressureIn,VisibilityMPH,Wind Direction,Wind SpeedMPH,Gust SpeedMPH,PrecipitationIn,Events,Conditions,WindDirDegrees,DateUTC
12:00 AM,57.2,41.0,55,29.91,25.0,NNW,6.9,-,N/A,,Clear,340,2013-06-15 04:00:00
1:00 AM,53.6,42.8,67,29.91,25.0,NW,3.5,-,N/A,,Clear,310,2013-06-15 05:00:00
2:00 AM,50.0,42.8,76,29.93,25.0,WNW,4.6,-,N/A,,Clear,290,2013-06-15 06:00:00
3:00 AM,48.2,42.8,82,29.94,25.0,WNW,3.5,-,N/A,,Clear,300,2013-06-15 07:00:00
4:00 AM,46.4,42.8,87,29.94,25.0,WNW,4.6,-,N/A,,Clear,290,2013-06-15 08:00:00
5:00 AM,46.4,42.8,87,29.94,45.0,West,3.5,-,N/A,,Partly Cloudy,280,2013-06-15 09:00:00
6:00 AM,46.4,42.8,87,29.94,45.0,West,2.3,-,N/A,,Partly Cloudy,270,2013-06-15 10:00:00
7:00 AM,53.6,48.2,82,29.95,45.0,West,4.6,-,N/A,,Partly Cloudy,270,2013-06-15 11:00:00
8:00 AM,59.0,46.4,63,29.96,45.0,WSW,4.6,-,N/A,,Partly Cloudy,240,2013-06-15 12:00:00
9:00 AM,62.6,51.8,68,29.96,45.0,WSW,5.8,-,N/A,,Partly Cloudy,240,2013-06-15 13:00:00
10:00 AM,66.2,48.2,52,29.95,45.0,SW,9.2,17.3,N/A,,Partly Cloudy,220,2013-06-15 14:00:00
11:00 AM,69.8,50.0,49,29.94,45.0,WSW,6.9,-,N/A,,Scattered Clouds,240,2013-06-15 15:00:00
12:00 PM,69.8,50.0,49,29.93,45.0,WSW,9.2,21.9,N/A,,Mostly Cloudy,250,2013-06-15 16:00:00
1:00 PM,71.6,46.4,41,29.92,45.0,WSW,12.7,19.6,N/A,,Mostly Cloudy,250,2013-06-15 17:00:00
2:00 PM,71.6,48.2,43,29.89,45.0,WSW,8.1,18.4,N/A,,Mostly Cloudy,250,2013-06-15 18:00:00
3:00 PM,73.4,46.4,38,29.88,45.0,WSW,10.4,-,N/A,,Scattered Clouds,250,2013-06-15 19:00:00
4:00 PM,73.4,48.2,41,29.86,45.0,WSW,9.2,18.4,N/A,,Mostly Cloudy,240,2013-06-15 20:00:00
5:00 PM,73.4,48.2,41,29.86,45.0,WSW,10.4,23.0,N/A,,Mostly Cloudy,250,2013-06-15 21:00:00
6:00 PM,73.4,46.4,38,29.85,45.0,SW,10.4,19.6,N/A,,Scattered Clouds,230,2013-06-15 22:00:00
7:00 PM,71.6,46.4,41,29.85,45.0,West,8.1,-,N/A,,Partly Cloudy,260,2013-06-15 23:00:00
8:00 PM,69.8,48.2,46,29.85,45.0,SW,5.8,-,N/A,,Partly Cloudy,230,2013-06-16 00:00:00
9:00 PM,66.2,50.0,56,29.86,25.0,SW,6.9,-,N/A,,Partly Cloudy,230,2013-06-16 01:00:00
10:00 PM,64.4,50.0,59,29.88,25.0,SW,6.9,-,N/A,,Partly Cloudy,230,2013-06-16 02:00:00
11:00 PM,62.6,50.0,63,29.88,25.0,WSW,5.8,-,N/A,,Scattered Clouds,240,2013-06-16 03:00:00